This is the latest recevied weather packets stored in our database for station/object N8BAP. If no packets are shown the sender has not sent any weather packets the latest 10 day(s).
| Time | Temp. | Humidity | Pressure | Rain* | Wind** | Luminosity | Snow |
|---|---|---|---|---|---|---|---|
| 1777660923 | 11.67° C | 65% | 1018.4 hPa | 0 mm | - | 841 W/m² | - |
| 1777660619 | 11.67° C | 68% | 1018.4 hPa | 0 mm | - | 240 W/m² | - |
| 1777660317 | 11.11° C | 71% | 1018.3 hPa | 0 mm | - | 241 W/m² | - |
| 1777660013 | 11.11° C | 67% | 1018.5 hPa | 0 mm | - | 216 W/m² | - |
| 1777659709 | 11.11° C | 69% | 1018.5 hPa | 0 mm | - | 223 W/m² | - |
| 1777659407 | 11.11° C | 72% | 1018.1 hPa | 0 mm | - | 342 W/m² | - |
| 1777659104 | 11.11° C | 79% | 1018.2 hPa | 0 mm | - | 301 W/m² | - |
| 1777658802 | 11.11° C | 85% | 1018.3 hPa | 0 mm | - | 266 W/m² | - |
| 1777658498 | 10° C | 85% | 1018.3 hPa | 0 mm | - | 929 W/m² | - |
| 1777658194 | 10° C | 88% | 1018.4 hPa | 0 mm | - | 301 W/m² | - |
| 1777657892 | 9.44° C | 90% | 1018.2 hPa | 0 mm | - | 299 W/m² | - |
| 1777657588 | 8.89° C | 89% | 1018.2 hPa | 0 mm | - | 238 W/m² | - |
| 1777657286 | 8.89° C | 87% | 1018.5 hPa | 0 mm | - | 158 W/m² | - |
| 1777656983 | 8.89° C | 84% | 1018.4 hPa | 0 mm | - | 124 W/m² | - |
| 1777656680 | 10° C | 78% | 1018.2 hPa | 0 mm | - | 76 W/m² | - |
| 1777656376 | 10.56° C | 76% | 1018 hPa | 0 mm | - | 92 W/m² | - |
| 1777656071 | 11.11° C | 75% | 1017.8 hPa | 0 mm | - | 90 W/m² | - |
| 1777655767 | 11.11° C | 76% | 1018 hPa | 0 mm | - | 355 W/m² | - |
| 1777655464 | 11.11° C | 78% | 1018 hPa | 0 mm | - | 457 W/m² | - |
| 1777655161 | 10.56° C | 76% | 1017.6 hPa | 0 mm | - | 255 W/m² | - |
| 1777654858 | 11.11° C | 77% | 1017.9 hPa | 0 mm | - | 215 W/m² | - |
| 1777654556 | 11.11° C | 79% | 1017.9 hPa | 0 mm | - | 255 W/m² | - |
| 1777654253 | 10° C | 83% | 1017.9 hPa | 0 mm | - | 449 W/m² | - |
| 1777653950 | 10° C | 82% | 1017.9 hPa | 0 mm | - | 242 W/m² | - |
| 1777653647 | 9.44° C | 82% | 1017.7 hPa | 0 mm | - | 158 W/m² | - |
* Rain latest hour (hover to see other rain measurements)
** Current wind speed in m/s (hover to see current wind gust speed)